This is the latest recevied weather packets stored in our database for station/object EA5GK-10. If no packets are shown the sender has not sent any weather packets the latest 10 day(s).
| Time | Temp. | Humidity | Pressure | Rain* | Wind** | Luminosity | Snow |
|---|---|---|---|---|---|---|---|
| 1787895594 | 25° C | 34% | 1018.4 hPa | - | - | - | - |
| 1787894694 | 25° C | 35% | 1018.2 hPa | - | - | - | - |
| 1787893794 | 25° C | 34% | 1018.1 hPa | - | - | - | - |
| 1787892894 | 25° C | 34% | 1018.5 hPa | - | - | - | - |
| 1787891994 | 25° C | 34% | 1017.4 hPa | - | - | - | - |
| 1787891094 | 25° C | 33% | 1017 hPa | - | - | - | - |
| 1787890193 | 25° C | 33% | 1016.5 hPa | - | - | - | - |
| 1787889293 | 25° C | 32% | 1017 hPa | - | - | - | - |
| 1787888393 | 25.56° C | 32% | 1016.8 hPa | - | - | - | - |
| 1787887493 | 26.11° C | 32% | 1016.9 hPa | - | - | - | - |
| 1787886593 | 26.11° C | 33% | 1017.3 hPa | - | - | - | - |
| 1787885693 | 26.11° C | 33% | 1017.4 hPa | - | - | - | - |
| 1787884793 | 26.11° C | 32% | 1017.1 hPa | - | - | - | - |
| 1787883893 | 26.67° C | 34% | 1016.8 hPa | - | - | - | - |
| 1787882992 | 26.67° C | 34% | 1016.4 hPa | - | - | - | - |
| 1787882092 | 26.67° C | 34% | 1016.3 hPa | - | - | - | - |
| 1787881192 | 27.22° C | 37% | 1016.3 hPa | - | - | - | - |
| 1787880292 | 27.78° C | 37% | 1016.6 hPa | - | - | - | - |
| 1787879392 | 27.78° C | 37% | 1016.9 hPa | - | - | - | - |
| 1787878492 | 27.78° C | 36% | 1017.3 hPa | - | - | - | - |
| 1787877592 | 28.33° C | 36% | 1017 hPa | - | - | - | - |
| 1787876691 | 28.33° C | 36% | 1016.8 hPa | - | - | - | - |
| 1787875791 | 28.33° C | 35% | 1016.5 hPa | - | - | - | - |
| 1787874891 | 27.78° C | 34% | 1017 hPa | - | - | - | - |
| 1787873991 | 28.33° C | 35% | 1016.7 hPa | - | - | - | - |
* Rain since midnight (hover to see other rain measurements)
** Current wind speed in m/s (hover to see current wind gust speed)